Hourly Weather Uige

Today, 17 May, Monday

Time Temperature Precipitation Wind Pressure Humidity
00:00 +22°C° 0 mm 1 mps 691 mmHg 77%
01:00 +22°C° 0 mm 1 mps 691 mmHg 78%
02:00 +21°C° 0 mm 1 mps 690 mmHg 77%
03:00 +21°C° 0 mm 1 mps 690 mmHg 77%
04:00 +21°C° 0 mm 1 mps 690 mmHg 76%
05:00 +21°C° 0 mm 1 mps 690 mmHg 76%
06:00 +21°C° 0 mm 1 mps 691 mmHg 75%
07:00 +22°C° 0 mm 1 mps 691 mmHg 75%
08:00 +24°C° 0 mm 1 mps 692 mmHg 65%
09:00 +27°C° 0 mm 1 mps 692 mmHg 55%
10:00 +30°C° 0 mm 2 mps 693 mmHg 45%
11:00 +31°C° 0 mm 2 mps 692 mmHg 42%
12:00 +32°C° 0 mm 2 mps 692 mmHg 39%
13:00 +34°C° 0 mm 2 mps 691 mmHg 36%
14:00 +33°C° 0 mm 1 mps 691 mmHg 39%
15:00 +33°C° 0 mm 1 mps 690 mmHg 42%
16:00 +32°C° 0 mm 1 mps 690 mmHg 45%
17:00 +30°C° 0 mm 1 mps 690 mmHg 52%
18:00 +28°C° 0 mm 1 mps 691 mmHg 59%
19:00 +26°C° 0 mm 1 mps 691 mmHg 66%
20:00 +23°C° 0 mm 0 mps 691 mmHg 70%
21:00 +22°C° 0 mm 0 mps 692 mmHg 74%
22:00 +21°C° 0 mm 0 mps 692 mmHg 78%
23:00 +21°C° 0 mm 0 mps 692 mmHg 78%

Tomorrow, 18 May, Tuesday

Time Temperature Precipitation Wind Pressure Humidity
00:00 +22°C° 0 mm 1 mps 691 mmHg 79%
01:00 +22°C° 0 mm 1 mps 691 mmHg 80%
02:00 +22°C° 0 mm 1 mps 691 mmHg 79%
03:00 +21°C° 0 mm 1 mps 691 mmHg 77%
04:00 +21°C° 0 mm 1 mps 690 mmHg 76%
05:00 +22°C° 0 mm 1 mps 691 mmHg 76%
06:00 +22°C° 0 mm 1 mps 691 mmHg 75%
07:00 +22°C° 0 mm 1 mps 692 mmHg 75%
08:00 +25°C° 0 mm 1 mps 692 mmHg 64%
09:00 +28°C° 0 mm 1 mps 693 mmHg 54%
10:00 +31°C° 0 mm 1 mps 694 mmHg 44%
11:00 +32°C° 0 mm 2 mps 693 mmHg 40%
12:00 +34°C° 0 mm 2 mps 692 mmHg 37%
13:00 +35°C° 0 mm 2 mps 692 mmHg 33%
14:00 +34°C° 0 mm 2 mps 691 mmHg 36%
15:00 +34°C° 0 mm 2 mps 691 mmHg 39%
16:00 +32°C° 0 mm 1 mps 691 mmHg 42%
17:00 +30°C° 0 mm 1 mps 691 mmHg 49%
18:00 +28°C° 0 mm 1 mps 691 mmHg 57%
19:00 +26°C° 0 mm 1 mps 692 mmHg 64%
20:00 +25°C° 0 mm 1 mps 692 mmHg 67%
21:00 +24°C° 0 mm 1 mps 692 mmHg 70%
22:00 +23°C° 0 mm 1 mps 692 mmHg 73%
23:00 +21°C° 0 mm 0 mps 692 mmHg 74%

Day after tomorrow, 19 May, Wednesday

Time Temperature Precipitation Wind Pressure Humidity
00:00 +20°C° 0 mm 0 mps 692 mmHg 76%
01:00 +20°C° 0 mm 0 mps 692 mmHg 78%
02:00 +19°C° 0 mm 0 mps 691 mmHg 82%
03:00 +19°C° 0 mm 0 mps 691 mmHg 86%
04:00 +19°C° 0 mm 0 mps 691 mmHg 91%
05:00 +19°C° 0 mm 0 mps 692 mmHg 90%
06:00 +20°C° 0 mm 0 mps 692 mmHg 89%
07:00 +20°C° 0 mm 0 mps 693 mmHg 88%
08:00 +22°C° 0 mm 0 mps 693 mmHg 80%
09:00 +24°C° 0 mm 0 mps 694 mmHg 72%
10:00 +25°C° 0 mm 0 mps 694 mmHg 64%
11:00 +29°C° 0 mm 1 mps 694 mmHg 57%
12:00 +30°C° 0 mm 1 mps 693 mmHg 50%
13:00 +32°C° 0 mm 1 mps 693 mmHg 43%
14:00 +31°C° 0 mm 1 mps 692 mmHg 46%
15:00 +31°C° 0 mm 1 mps 692 mmHg 49%
16:00 +30°C° 0 mm 1 mps 691 mmHg 52%
17:00 +28°C° 0.2 mm 1 mps 692 mmHg 63%
18:00 +26°C° 0.2 mm 1 mps 692 mmHg 73%
19:00 +24°C° 0.2 mm 1 mps 692 mmHg 83%
20:00 +22°C° 0.1 mm 0 mps 692 mmHg 87%
21:00 +21°C° 0.1 mm 0 mps 693 mmHg 90%
22:00 +20°C° 0.1 mm 0 mps 693 mmHg 94%
23:00 +20°C° 0 mm 0 mps 693 mmHg 95%

20 May, Thursday

Time Temperature Precipitation Wind Pressure Humidity
00:00 +20°C° 0 mm 0 mps 692 mmHg 97%
01:00 +19°C° 0 mm 0 mps 692 mmHg 98%
02:00 +21°C° 0 mm 1 mps 692 mmHg 98%
03:00 +21°C° 0 mm 1 mps 692 mmHg 98%
04:00 +21°C° 0 mm 1 mps 692 mmHg 98%
05:00 +21°C° 0 mm 1 mps 692 mmHg 96%
06:00 +22°C° 0 mm 1 mps 692 mmHg 95%
07:00 +22°C° 0 mm 1 mps 693 mmHg 94%
08:00 +24°C° 0 mm 1 mps 693 mmHg 82%
09:00 +26°C° 0 mm 1 mps 694 mmHg 71%
10:00 +28°C° 0 mm 1 mps 694 mmHg 60%
11:00 +30°C° 0 mm 1 mps 694 mmHg 52%
12:00 +32°C° 0 mm 1 mps 693 mmHg 44%
13:00 +34°C° 0 mm 1 mps 692 mmHg 37%
14:00 +33°C° 0 mm 1 mps 692 mmHg 39%
15:00 +33°C° 0 mm 1 mps 691 mmHg 41%
16:00 +32°C° 0 mm 1 mps 691 mmHg 43%
17:00 +30°C° 0.1 mm 1 mps 691 mmHg 55%
18:00 +27°C° 0.1 mm 1 mps 692 mmHg 66%
19:00 +23°C° 0.1 mm 0 mps 692 mmHg 78%
20:00 +22°C° 0.1 mm 0 mps 692 mmHg 82%
21:00 +22°C° 0.1 mm 0 mps 693 mmHg 86%
22:00 +21°C° 0.1 mm 0 mps 693 mmHg 89%
23:00 +21°C° 0 mm 0 mps 693 mmHg 92%

21 May, Friday

Time Temperature Precipitation Wind Pressure Humidity
00:00 +20°C° 0 mm 0 mps 692 mmHg 94%
01:00 +20°C° 0 mm 0 mps 692 mmHg 96%
02:00 +20°C° 0 mm 0 mps 692 mmHg 97%
03:00 +19°C° 0 mm 0 mps 692 mmHg 97%
04:00 +19°C° 0 mm 0 mps 691 mmHg 98%
05:00 +19°C° 0 mm 0 mps 692 mmHg 96%
06:00 +20°C° 0 mm 0 mps 692 mmHg 95%
07:00 +20°C° 0 mm 0 mps 693 mmHg 93%
08:00 +23°C° 0 mm 0 mps 693 mmHg 80%
09:00 +26°C° 0 mm 0 mps 694 mmHg 67%
10:00 +28°C° 0 mm 0 mps 694 mmHg 54%
11:00 +32°C° 0 mm 1 mps 694 mmHg 47%
12:00 +33°C° 0 mm 1 mps 693 mmHg 40%
13:00 +35°C° 0 mm 2 mps 692 mmHg 33%
14:00 +34°C° 0 mm 1 mps 692 mmHg 35%
15:00 +34°C° 0 mm 1 mps 692 mmHg 37%
16:00 +33°C° 0 mm 1 mps 691 mmHg 39%
17:00 +31°C° 0 mm 1 mps 692 mmHg 47%
18:00 +29°C° 0 mm 1 mps 692 mmHg 54%
19:00 +26°C° 0 mm 1 mps 692 mmHg 62%
20:00 +26°C° 0 mm 1 mps 692 mmHg 65%
21:00 +25°C° 0 mm 1 mps 692 mmHg 68%
22:00 +24°C° 0 mm 1 mps 693 mmHg 72%
23:00 +23°C° 0 mm 1 mps 692 mmHg 72%

22 May, Saturday

Time Temperature Precipitation Wind Pressure Humidity
00:00 +23°C° 0 mm 1 mps 692 mmHg 72%
01:00 +22°C° 0 mm 1 mps 692 mmHg 73%
02:00 +22°C° 0 mm 1 mps 692 mmHg 74%
03:00 +22°C° 0 mm 1 mps 691 mmHg 75%
04:00 +22°C° 0 mm 1 mps 691 mmHg 76%
05:00 +22°C° 0 mm 1 mps 692 mmHg 76%
06:00 +22°C° 0 mm 1 mps 692 mmHg 76%
07:00 +22°C° 0 mm 1 mps 693 mmHg 76%
08:00 +25°C° 0 mm 1 mps 693 mmHg 66%
09:00 +28°C° 0 mm 1 mps 694 mmHg 55%
10:00 +31°C° 0 mm 1 mps 694 mmHg 45%
11:00 +32°C° 0 mm 1 mps 694 mmHg 41%
12:00 +33°C° 0 mm 1 mps 693 mmHg 36%
13:00 +36°C° 0 mm 2 mps 692 mmHg 32%
14:00 +35°C° 0 mm 2 mps 692 mmHg 34%
15:00 +35°C° 0 mm 2 mps 692 mmHg 36%
16:00 +34°C° 0 mm 2 mps 691 mmHg 38%
17:00 +31°C° 0 mm 1 mps 691 mmHg 45%
18:00 +29°C° 0 mm 1 mps 692 mmHg 52%
19:00 +27°C° 0 mm 1 mps 692 mmHg 59%
20:00 +26°C° 0 mm 1 mps 692 mmHg 63%
21:00 +25°C° 0 mm 1 mps 692 mmHg 66%
22:00 +22°C° 0 mm 0 mps 693 mmHg 70%
23:00 +23°C° 0 mm 1 mps 692 mmHg 72%
Show more

We Need Your Consent

Meteoprog and our Service Providers may store and access personal data such as cookies, device identifiers or other similar technologies on your device and process such data to personalise content and ads, as well as provide social media features and to analyse the traffic.

  • Store and/or access information on your device

    Cookies, device identifiers or other information can be stored or accessed on your device for the purposes indicated above.

  • Personalised ads and content, ad and content measurement, audience insights, and products development

    Ads and content can be personalised based on a profile. More data can be added to better personalise ads and content. Ad and content performance can be measured. Insights about the audience who saw the ads and content can be derived. Such data can be used to develop or improve user’s experience, systems and software.

By clicking ‘I Agree’ you will allow the use of indicated cookies, device identifiers, web beacons or other similar technologies. Your settings can be changed in the browser on your device.

For certain purposes, legitimate interests may be relied on, rather than consent. You can read more about this in our Privacy and Cookie Policy.